GW0544 Weather Reports


Display with metric or nautical units.
time (UTC)temp
F
wind
direction
speed
MPH
gust
MPH
rain 1hr
in
rain 24hr
in
rain mn
in
humidity
%
barometer
mb
20260510213051 87 227 6.0 13.0 0.00 0.00 0.00 27 1015.5
20260510211555 86 251 6.0 14.0 0.00 0.00 0.00 27 1015.5
20260510210109 86 246 6.0 14.0 0.00 0.00 0.00 28 1015.7
20260510204553 87 285 6.0 12.0 0.00 0.00 0.00 26 1015.7
20260510203059 87 236 7.0 17.0 0.00 0.00 0.00 24 1015.6
20260510201556 87 265 7.0 14.0 0.00 0.00 0.00 23 1015.7
20260510200051 87 281 7.0 12.0 0.00 0.00 0.00 21 1015.6
20260510194555 87 284 7.0 11.0 0.00 0.00 0.00 20 1015.4
20260510193108 88 277 6.0 12.0 0.00 0.00 0.00 20 1015.4
20260510191559 88 279 5.0 12.0 0.00 0.00 0.00 19 1015.3
20260510190057 89 257 6.0 11.0 0.00 0.00 0.00 18 1015.3
20260510184551 89 267 5.0 9.0 0.00 0.00 0.00 17 1015.3
20260510183058 91 245 4.0 9.0 0.00 0.00 0.00 17 1015.3
20260510181643 92 274 4.0 9.0 0.00 0.00 0.00 13 1015.3
20260510180104 93 269 1.0 7.0 0.00 0.00 0.00 12 1015.3
20260510174554 93 229 1.0 5.0 0.00 0.00 0.00 10 1015.2
20260510173057 93 215 1.0 5.0 0.00 0.00 0.00 12 1015.2
20260510171559 91 224 1.0 4.0 0.00 0.00 0.00 12 1015.2
20260510170103 89 0 1.0 4.0 0.00 0.00 0.00 12 1015.3
20260510164607 86 244 0.0 3.0 0.00 0.00 0.00 11 1015.2
20260510163054 84 216 2.0 5.0 0.00 0.00 0.00 16 1015.3
20260510161559 81 69 1.0 2.0 0.00 0.00 0.00 17 1015.2
20260510160100 80 69 0.0 2.0 0.00 0.00 0.00 13 1015.0
20260510154617 78 69 0.0 2.0 0.00 0.00 0.00 28 1015.1
20260510153107 74 69 0.0 2.0 0.00 0.00 0.00 32 1015.0
20260510151602 70 0 0.0 0.0 0.00 0.00 0.00 32 1015.0
20260510150105 66 0 0.0 1.0 0.00 0.00 0.00 38 1015.0
20260510144600 61 57 0.0 2.0 0.00 0.00 0.00 44 1015.1
20260510143059 56 0 0.0 2.0 0.00 0.00 0.00 47 1015.1
20260510141601 52 57 2.0 5.0 0.00 0.00 0.00 53 1015.0
20260510140059 47 63 2.0 4.0 0.00 0.00 0.00 66 1014.9
20260510134601 43 64 2.0 4.0 0.00 0.00 0.00 72 1014.9
20260510133059 40 57 1.0 3.0 0.00 0.00 0.00 70 1014.7
20260510131603 40 56 0.0 3.0 0.00 0.00 0.00 70 1014.7
20260510130057 39 57 2.0 4.0 0.00 0.00 0.00 71 1014.6
20260510124610 39 59 1.0 3.0 0.00 0.00 0.00 71 1014.6
20260510123056 39 59 1.0 4.0 0.00 0.00 0.00 73 1014.5
20260510121554 39 61 1.0 3.0 0.00 0.00 0.00 72 1014.5
20260510120051 40 0 0.0 3.0 0.00 0.00 0.00 72 1014.5
20260510114552 39 61 2.0 4.0 0.00 0.00 0.00 74 1014.4
20260510113059 40 63 1.0 3.0 0.00 0.00 0.00 71 1014.5
20260510111606 41 0 0.0 3.0 0.00 0.00 0.00 72 1014.7
20260510110052 41 0 2.0 4.0 0.00 0.00 0.00 76 1014.7
20260510104605 41 63 2.0 4.0 0.00 0.00 0.00 77 1014.5
20260510103052 41 61 0.0 2.0 0.00 0.00 0.00 74 1014.6
20260510101553 42 0 1.0 3.0 0.00 0.00 0.00 73 1014.7
20260510100058 43 61 2.0 4.0 0.00 0.00 0.00 77 1014.9
20260510094553 43 58 1.0 4.0 0.00 0.00 0.00 77 1015.0
20260510093051 43 61 1.0 2.0 0.00 0.00 0.00 77 1015.2
20260510091558 44 0 0.0 4.0 0.00 0.00 0.00 76 1015.0
20260510084600 44 0 0.0 2.0 0.00 0.00 0.00 77 1015.1
20260510083059 44 0 0.0 2.0 0.00 0.00 0.00 76 1015.4
20260510081555 45 0 0.0 1.0 0.00 0.00 0.00 77 1015.5
20260510074553 47 0 1.0 4.0 0.00 0.00 0.00 78 1015.7
20260510073056 47 76 1.0 5.0 0.00 0.00 0.00 77 1015.6
20260510071555 47 71 1.0 4.0 0.00 0.00 0.00 73 1015.7
20260510070106 49 0 0.0 3.0 0.00 0.00 0.00 75 1015.7
20260510064607 49 74 1.0 3.0 0.00 0.00 0.00 77 1015.8
20260510063053 49 0 0.0 3.0 0.00 0.00 0.00 75 1015.8
20260510061554 50 0 0.0 3.0 0.00 0.00 0.00 73 1015.7
20260510060055 50 75 2.0 4.0 0.00 0.00 0.00 75 1015.9
20260510054554 51 0 0.0 2.0 0.00 0.00 0.00 72 1015.9
20260510053055 52 0 0.0 1.0 0.00 0.00 0.00 71 1015.8
20260510051601 52 0 0.0 4.0 0.00 0.00 0.00 71 1015.8
20260510050055 53 71 1.0 3.0 0.00 0.00 0.00 69 1015.8
20260510044555 54 72 1.0 4.0 0.00 0.00 0.00 66 1015.8
20260510043051 56 0 0.0 3.0 0.00 0.00 0.00 67 1015.7
20260510041604 57 65 2.0 4.0 0.00 0.00 0.00 63 1015.6
20260510040056 59 0 0.0 3.0 0.00 0.00 0.00 61 1015.4
20260510034558 62 0 1.0 3.0 0.00 0.00 0.00 58 1015.3
20260510033053 63 0 0.0 1.0 0.00 0.00 0.00 60 1015.0
20260510031557 65 0 0.0 1.0 0.00 0.00 0.00 54 1014.9
20260510024554 69 0 0.0 4.0 0.00 0.00 0.00 52 1014.4
20260510023050 71 230 2.0 5.0 0.00 0.00 0.00 48 1014.4
20260510021551 74 273 1.0 3.0 0.00 0.00 0.00 45 1014.4
20260510020052 77 0 2.0 6.0 0.00 0.00 0.00 42 1014.3
20260510014556 79 295 4.0 7.0 0.00 0.00 0.00 39 1014.1
20260510013101 81 257 2.0 8.0 0.00 0.00 0.00 38 1014.1
20260510011552 82 249 3.0 9.0 0.00 0.00 0.00 37 1014.2
20260510010053 82 246 5.0 9.0 0.00 0.00 0.00 37 1014.2
20260510004550 83 246 4.0 10.0 0.00 0.00 0.00 36 1014.0
20260510003058 84 267 4.0 9.0 0.00 0.00 0.00 35 1014.0
20260510001601 83 255 4.0 10.0 0.00 0.00 0.00 35 1014.1
20260510000111 83 205 4.0 11.0 0.00 0.00 0.00 36 1013.9
20260509234621 83 251 4.0 12.0 0.00 0.00 0.00 35 1014.0
20260509233058 83 281 6.0 12.0 0.00 0.00 0.00 35 1013.8
20260509231611 83 246 6.0 14.0 0.00 0.00 0.00 35 1013.9
20260509230107 84 288 7.0 14.0 0.00 0.00 0.00 34 1013.9
20260509224556 85 248 6.0 12.0 0.00 0.00 0.00 34 1013.8
20260509223052 85 269 8.0 15.0 0.00 0.00 0.00 33 1014.0
20260509221554 86 272 6.0 13.0 0.00 0.00 0.00 30 1014.0
20260509220052 86 286 7.0 12.0 0.00 0.00 0.00 30 1014.1
20260509214556 87 255 8.0 16.0 0.00 0.00 0.00 27 1014.1